Zurück zum Katalog

SL-16 DEB

AktivLEO
NORAD 23282·DEBRIS·🇷🇺 Russia

Gestartet Dec 25, 1992 von Baikonur Cosmodrome

Loading…

Nächste Überflüge (nächste 24 Stunden)

TLE

AktuellSource: Space-Track

Epoche: Sep 14, 2026, 11:03 UTC

1 23282U 92093JG  26257.46107433  .00008141  00000-0  13931-2 0  9993
2 23282  71.1685 252.3654 0037437 158.6707   1.5064 14.68628046687633

Verfolge SL-16 DEB in Echtzeit mit AllMySat

Download on the App Store